[[{"header":{"parameterUnit":"m.s-1","parameterCategory":2,"la1":30.2991,"la2":30.254,"lo1":-89.0895,"lo2":-89.0444,"dy":0.0017,"dx":0.0017,"nx":28,"ny":28,"refTime":"2024-07-28T09:00:00:Z","depth":"0","parameterNumber":2,"parameterNumberName":"U-component_of_CURRENTS"},"data":[0,0,0,0,0,0,0,0,0,0,0,0,0,0,0,0,0,0,0,0,0,0,0,0,0,0,0,0,0,0,0,0,0,0,0,0,0,0,0,0,0,0,0,0,0,0,0,0,0,0,0,0,0,0,0,0,0,0,0.4135,0.4136,0,0.4184,0.4185,0.4185,0.4198,0.4198,0.4198,0.4198,0.4238,0.4239,0.424,0,0,0,0,0,0,0,0,0,0,0,0,0,0.4038,0.4039,0.4135,0.4136,0.4137,0.4184,0.4185,0.4185,0.4198,0.4198,0.4198,0.4198,0.4237,0.4239,0.424,0,0,0,0,0,0,0,0,0,0,0,0,0,0.408,0.404,0.4135,0.4151,0.4153,0.4184,0.4185,0.4185,0.4198,0.4198,0.4198,0.4198,0.4237,0.4239,0.424,0.4251,0,0,0.4245,0.4246,0,0,0,0,0,0,0,0,0.4077,0.4083,0.4148,0.415,0.4153,0.4188,0.4165,0.4208,0.4198,0.4178,0.4198,0.4198,0.4222,0.4225,0.423,0.4253,0.4254,0.4245,0.4246,0.4247,0.4247,0,0,0,0,0,0,0,0.4075,0.4081,0.4152,0.4149,0.4152,0.4151,0.4157,0.4173,0.4197,0.418,0.4181,0.4192,0.4223,0.4228,0.4231,0.4255,0.4245,0.4247,0.4248,0.4248,0.4285,0.4285,0,0,0,0,0,0,0.4076,0.4078,0.415,0.4153,0.4118,0.4153,0.416,0.4174,0.4197,0.4202,0.4192,0.4192,0.4226,0.4229,0.4233,0.4257,0.4247,0.4248,0.4249,0.4285,0.4285,0.4285,0,0,0,0,0,0,0.4073,0.4082,0.4148,0.4119,0.4128,0.4155,0.4171,0.4175,0.4182,0.4207,0.4211,0.4195,0.4226,0.423,0.4246,0.4259,0.4249,0.4251,0.4285,0.4285,0.4285,0.43,0,0,0,0,0,0,0.407,0.4081,0.4084,0.4119,0.413,0.4169,0.4172,0.4176,0.419,0.4191,0.4212,0.4215,0.4226,0.4243,0.4247,0.4261,0.4252,0.4285,0.4285,0.4285,0.4299,0.43,0.4301,0,0,0,0,0,0.4067,0.407,0.4084,0.4093,0.4136,0.417,0.4174,0.4191,0.419,0.4196,0.4206,0.4215,0.4246,0.4245,0.425,0.4264,0.4285,0.4285,0.4285,0.4299,0.43,0.4301,0,0,0,0,0,0,0.4018,0.4074,0.4089,0.4106,0.4139,0.4173,0.4178,0.4191,0.4203,0.4201,0.4217,0.4222,0.4239,0.4246,0.4243,0.4272,0.4266,0.4267,0.4275,0.4276,0.4277,0.4248,0.4253,0,0,0,0,0,0.4013,0.4036,0.4085,0.4097,0.4115,0.4146,0.4159,0.4175,0.4196,0.4201,0.4213,0.4225,0.4243,0.4254,0.4266,0.4285,0.4297,0.4294,0.4295,0.4296,0.4274,0.4312,0.4314,0.4286,0.4286,0.4286,0,0,0.3994,0.403,0.404,0.4089,0.4113,0.4134,0.4152,0.4176,0.4185,0.4203,0.4208,0.4228,0.4247,0.4267,0.4275,0.4275,0.4315,0.4296,0.4297,0.4274,0.4312,0.4315,0.4318,0.4286,0.4286,0.4286,0,0,0.3977,0.4004,0.4023,0.4052,0.4098,0.412,0.4128,0.4165,0.4174,0.4191,0.4206,0.4226,0.425,0.4268,0.428,0.429,0.4316,0.4302,0.4289,0.4327,0.433,0.4332,0.4373,0.4379,0.4306,0.4306,0.4306,0,0.3949,0.3987,0.4029,0.4054,0.4072,0.4113,0.4128,0.4145,0.4178,0.4184,0.419,0.4226,0.4246,0.4273,0.4277,0.4293,0.432,0.4289,0.4329,0.4332,0.4334,0.4375,0.4381,0.4307,0.4307,0.4307,0.4307,0,0.3953,0.3981,0.3991,0.4039,0.4059,0.4081,0.4117,0.413,0.4145,0.4164,0.4187,0.4217,0.4238,0.4257,0.4271,0.4301,0.4319,0.4327,0.4329,0.4338,0.4381,0.4387,0.4308,0.4308,0.4307,0.4307,0,0,0.3897,0.398,0.3981,0.4002,0.4055,0.4068,0.4086,0.4116,0.4127,0.4151,0.4164,0.4198,0.4216,0.4229,0.4261,0.4291,0.4346,0.4315,0.4317,0.4358,0.4439,0.4425,0.4431,0.4372,0.4373,0.4373,0.447,0,0.3887,0.3929,0.3972,0.3992,0.4014,0.4054,0.4069,0.4094,0.4119,0.414,0.417,0.4194,0.4208,0.4231,0.4262,0.4318,0.4359,0.4319,0.4419,0.4421,0.4411,0.4436,0.4305,0.4377,0.4477,0.4478,0.4479,0,0.3878,0.3908,0.3931,0.3984,0.3995,0.4003,0.4031,0.4053,0.4094,0.4117,0.4142,0.4174,0.4211,0.4229,0.4317,0.4295,0.4361,0.4405,0.4411,0.4388,0.4418,0.4379,0.4385,0.4197,0.4488,0.4488,0.4487,0,0.3816,0.3879,0.3893,0.3908,0.3967,0.397,0.3994,0.4035,0.4048,0.4097,0.4112,0.4167,0.4192,0.4268,0.435,0.4346,0.4452,0.4466,0.4517,0.4518,0.4414,0.4404,0.4245,0.4536,0.4535,0.4535,0.4535,0,0.3787,0.3792,0.3863,0.386,0.3872,0.3924,0.393,0.3969,0.4011,0.4021,0.4089,0.4108,0.4203,0.4272,0.4354,0.4446,0.4462,0.4509,0.4538,0.4418,0.4408,0.4246,0.4185,0.4539,0.4538,0.4537,0.4537,0,0.3705,0.3758,0.3775,0.3831,0.3841,0.3841,0.3878,0.3883,0.3942,0.3957,0.397,0.4061,0.416,0.4264,0.4398,0.4445,0.442,0.4582,0.4435,0.4443,0.43,0.4247,0.407,0.3966,0.4646,0.4646,0.4646,0,0.3666,0.3671,0.3728,0.3729,0.3745,0.3758,0.3761,0.3829,0.3842,0.3922,0.3924,0.4028,0.4106,0.4293,0.442,0.4572,0.441,0.45,0.446,0.4259,0.4223,0.4089,0.4004,0.4344,0.4342,0.434,0.4339,0,0.3585,0.3612,0.3624,0.364,0.3641,0.3643,0.3661,0.3662,0.374,0.3785,0.3854,0.3929,0.4126,0.4211,0.4396,0.4474,0.4257,0.4466,0.4285,0.3985,0.38,0.3725,0.432,0.4321,0.4323,0.4324,0.4325,0.4326,0.3515,0.3515,0.3544,0.3541,0.3545,0.3521,0.3482,0.3531,0.356,0.3594,0.3738,0.3796,0.3929,0.4197,0.4247,0.4172,0.4211,0.4059,0.4023,0.3913,0.3748,0.4308,0.4325,0.4327,0.4328,0.4329,0.433,0,0.3424,0.3436,0.344,0.3432,0.3388,0.3421,0.3403,0.3351,0.3358,0.3462,0.3539,0.3582,0.3663,0.3741,0.3811,0.3725,0.3611,0.3585,0.3324,0.3276,0.3792,0.3709,0.3557,0.3558,0.3558,0.3558,0.3558,0.3558,0.338,0.3354,0.3361,0.3278,0.3256,0.3143,0.3104,0.3068,0.3107,0.3083,0.309,0.318,0.3269,0.3325,0.3239,0.3201,0.2954,0.2884,0.2851,0.316,0.3198,0.3235,0.3136,0.2866,0.2866,0.2218,0.2212,0.2208]},{"header":{"parameterUnit":"m.s-1","parameterCategory":2,"la1":30.2991,"la2":30.254,"lo1":-89.0895,"lo2":-89.0444,"dy":0.0017,"dx":0.0017,"nx":28,"ny":28,"refTime":"2024-07-28T09:00:00:Z","depth":"0","parameterNumber":3,"parameterNumberName":"V-component_of_CURRENTS"},"data":[0,0,0,0,0,0,0,0,0,0,0,0,0,0,0,0,0,0,0,0,0,0,0,0,0,0,0,0,0,0,0,0,0,0,0,0,0,0,0,0,0,0,0,0,0,0,0,0,0,0,0,0,0,0,0,0,0,0,-0.0559,-0.056,0,-0.0638,-0.0639,-0.064,-0.0674,-0.0674,-0.0673,-0.0673,-0.0743,-0.0745,-0.0747,0,0,0,0,0,0,0,0,0,0,0,0,0,-0.0453,-0.0455,-0.0559,-0.056,-0.0561,-0.0638,-0.0639,-0.064,-0.0674,-0.0674,-0.0673,-0.0673,-0.0742,-0.0745,-0.0747,0,0,0,0,0,0,0,0,0,0,0,0,0,-0.0511,-0.0455,-0.0559,-0.0588,-0.0591,-0.0638,-0.0639,-0.064,-0.0674,-0.0674,-0.0673,-0.0673,-0.0742,-0.0744,-0.0747,-0.0766,0,0,-0.0756,-0.0757,0,0,0,0,0,0,0,0,-0.0508,-0.0515,-0.0582,-0.0586,-0.059,-0.0647,-0.0627,-0.0682,-0.0674,-0.0641,-0.0673,-0.0673,-0.0711,-0.0716,-0.073,-0.0769,-0.0772,-0.0756,-0.0758,-0.0759,-0.076,0,0,0,0,0,0,0,-0.0504,-0.0512,-0.0589,-0.0584,-0.0588,-0.0603,-0.061,-0.0638,-0.0674,-0.0644,-0.0647,-0.0657,-0.0712,-0.0727,-0.0732,-0.0773,-0.0756,-0.0759,-0.076,-0.0762,-0.0804,-0.0803,0,0,0,0,0,0,-0.0496,-0.0508,-0.0587,-0.0592,-0.0549,-0.0604,-0.0613,-0.0628,-0.0675,-0.0682,-0.0657,-0.0659,-0.0722,-0.0728,-0.0734,-0.0732,-0.0759,-0.0762,-0.0763,-0.0804,-0.0804,-0.0803,0,0,0,0,0,0,-0.0493,-0.0502,-0.0584,-0.0552,-0.0564,-0.0606,-0.0622,-0.0629,-0.0644,-0.0685,-0.0692,-0.0665,-0.0722,-0.073,-0.0751,-0.0736,-0.0763,-0.0766,-0.0805,-0.0804,-0.0803,-0.0745,0,0,0,0,0,0,-0.049,-0.0501,-0.0503,-0.0552,-0.0565,-0.0608,-0.0623,-0.0631,-0.0651,-0.0654,-0.0694,-0.07,-0.0723,-0.0746,-0.0753,-0.074,-0.0768,-0.0806,-0.0805,-0.0803,-0.0748,-0.0742,-0.0738,0,0,0,0,0,-0.0486,-0.0492,-0.0503,-0.0513,-0.0569,-0.0608,-0.0616,-0.0646,-0.0651,-0.0658,-0.0679,-0.0699,-0.0744,-0.0748,-0.0757,-0.0744,-0.0806,-0.0805,-0.0804,-0.075,-0.0743,-0.0738,0,0,0,0,0,0,-0.0446,-0.0498,-0.0511,-0.0531,-0.0565,-0.0614,-0.0622,-0.0643,-0.0666,-0.0663,-0.0699,-0.0707,-0.0717,-0.074,-0.0744,-0.0752,-0.0776,-0.0776,-0.0732,-0.0726,-0.0721,-0.0698,-0.077,0,0,0,0,0,-0.0439,-0.0457,-0.0506,-0.0521,-0.0535,-0.0577,-0.0595,-0.0615,-0.0645,-0.0656,-0.0683,-0.0704,-0.0719,-0.073,-0.0751,-0.0761,-0.0767,-0.0757,-0.0752,-0.0747,-0.0733,-0.0733,-0.0726,-0.0799,-0.0799,-0.0799,0,0,-0.0427,-0.0458,-0.0467,-0.0514,-0.054,-0.0554,-0.0587,-0.0611,-0.0615,-0.0659,-0.0667,-0.0692,-0.0718,-0.0725,-0.0731,-0.0742,-0.0728,-0.0745,-0.0741,-0.073,-0.0731,-0.0724,-0.0718,-0.0798,-0.0798,-0.0798,0,0,-0.0414,-0.0439,-0.0449,-0.0473,-0.0512,-0.0535,-0.054,-0.0586,-0.0596,-0.0614,-0.0636,-0.0646,-0.0684,-0.069,-0.07,-0.068,-0.0702,-0.0692,-0.0647,-0.0648,-0.0641,-0.0636,-0.0625,-0.0619,-0.0688,-0.0688,-0.0688,0,-0.0394,-0.0417,-0.0457,-0.047,-0.048,-0.0523,-0.0526,-0.0544,-0.0587,-0.0586,-0.0606,-0.0634,-0.0661,-0.0652,-0.0644,-0.0667,-0.067,-0.0668,-0.064,-0.0635,-0.063,-0.062,-0.0614,-0.0685,-0.0685,-0.0686,-0.0686,0,-0.0392,-0.0404,-0.041,-0.0436,-0.045,-0.0462,-0.049,-0.0498,-0.0514,-0.0531,-0.0533,-0.0567,-0.0579,-0.059,-0.0613,-0.0592,-0.0605,-0.0634,-0.0652,-0.0619,-0.0611,-0.0606,-0.0681,-0.0682,-0.0683,-0.0683,0,0,-0.0351,-0.0399,-0.0397,-0.0397,-0.0431,-0.0439,-0.0437,-0.0446,-0.0429,-0.0464,-0.0445,-0.0472,-0.0489,-0.05,-0.0529,-0.053,-0.0503,-0.0565,-0.0566,-0.0547,-0.0494,-0.0464,-0.0456,-0.0532,-0.0531,-0.053,-0.0498,0,-0.0332,-0.0345,-0.0372,-0.0362,-0.0364,-0.0388,-0.0378,-0.0385,-0.0396,-0.0387,-0.041,-0.0409,-0.0455,-0.0456,-0.0464,-0.0496,-0.0489,-0.0509,-0.0534,-0.0534,-0.0506,-0.0448,-0.0396,-0.0359,-0.0493,-0.0492,-0.0492,0,-0.0309,-0.0322,-0.0317,-0.0318,-0.0318,-0.0312,-0.029,-0.029,-0.0288,-0.0293,-0.0297,-0.0323,-0.0324,-0.0372,-0.0394,-0.0407,-0.0438,-0.0465,-0.0465,-0.0451,-0.0494,-0.0417,-0.0346,-0.0505,-0.0485,-0.0485,-0.0486,0,-0.0255,-0.027,-0.0262,-0.0266,-0.0279,-0.0263,-0.026,-0.0255,-0.0236,-0.0229,-0.0211,-0.0233,-0.0228,-0.0276,-0.0328,-0.0363,-0.0347,-0.0407,-0.0403,-0.0402,-0.0366,-0.0363,-0.0444,-0.0409,-0.0409,-0.0409,-0.0409,0,-0.0218,-0.0204,-0.0233,-0.0227,-0.0192,-0.0213,-0.0171,-0.0169,-0.0152,-0.0106,-0.0155,-0.0116,-0.0204,-0.0212,-0.0283,-0.0306,-0.0309,-0.0369,-0.0382,-0.0344,-0.0339,-0.0486,-0.0572,-0.0408,-0.0408,-0.0409,-0.0409,0,-0.0155,-0.0184,-0.0167,-0.0175,-0.0169,-0.0138,-0.0117,-0.0083,-0.0077,-0.0016,-0.0007,-0.0015,-0.0015,-0.0091,-0.0149,-0.0225,-0.0324,-0.0278,-0.0217,-0.0223,-0.0388,-0.0471,-0.0528,-0.0564,-0.0277,-0.0276,-0.0275,0,-0.0126,-0.0117,-0.0117,-0.0101,-0.0102,-0.0071,-0.0042,-0.0038,-0.0003,0.0059,0.0101,0.0122,0.0174,0.0107,-0.0015,-0.0101,-0.0251,-0.0146,-0.0208,-0.0363,-0.0467,-0.0543,-0.0575,-0.0139,-0.0138,-0.0136,-0.0135,0,-0.0063,-0.0067,-0.0059,-0.0032,-0.0003,0.0033,0.007,0.012,0.0148,0.0223,0.0334,0.039,0.0333,0.0306,0.0166,0.0062,-0.0234,-0.0117,-0.0295,-0.0365,-0.0433,-0.0484,-0.0201,-0.012,-0.0122,-0.0123,-0.0124,-0.0124,-0.0006,0.001,0.0012,0.0046,0.0081,0.0148,0.0223,0.0284,0.0396,0.0564,0.0557,0.0736,0.0593,0.043,0.0234,-0.0101,-0.0129,-0.0212,-0.0296,-0.0358,-0.04,-0.0074,-0.0004,-0.0005,-0.0006,-0.0006,-0.0007,0,0.006,0.0061,0.009,0.0133,0.0201,0.0202,0.0308,0.0416,0.0601,0.0788,0.0932,0.1036,0.0829,0.0534,0.0091,-0.0212,-0.0354,-0.0402,-0.0523,-0.0545,-0.0263,-0.0268,-0.0231,-0.0231,-0.0231,-0.0231,-0.023,-0.023,0.0092,0.0118,0.012,0.0229,0.0283,0.0418,0.0511,0.0677,0.0844,0.1145,0.1342,0.1445,0.1229,0.0332,-0.033,-0.0502,-0.073,-0.0755,-0.089,-0.0748,-0.0739,-0.0731,-0.0759,-0.0825,-0.0826,-0.1123,-0.1127,-0.1129]}],[{"header":{"parameterUnit":"m.s-1","parameterCategory":2,"la1":30.2991,"la2":30.254,"lo1":-89.0895,"lo2":-89.0444,"dy":0.0017,"dx":0.0017,"nx":28,"ny":28,"refTime":"2024-07-28T09:00:00:Z","depth":"2","parameterNumber":2,"parameterNumberName":"U-component_of_CURRENTS"},"data":[0,0,0,0,0,0,0,0,0,0,0,0,0,0,0,0,0,0,0,0,0,0,0,0,0,0,0,0,0,0,0,0,0,0,0,0,0,0,0,0,0,0,0,0,0,0,0,0,0,0,0,0,0,0,0,0,0,0,0.2177,0.2177,0,0.2149,0.2148,0.2148,0.2131,0.2132,0.2132,0.2132,0.2109,0.2108,0.2108,0,0,0,0,0,0,0,0,0,0,0,0,0,0.2191,0.2191,0.2177,0.2177,0.2177,0.2149,0.2148,0.2147,0.2131,0.2132,0.2132,0.2132,0.211,0.2109,0.2108,0,0,0,0,0,0,0,0,0,0,0,0,0,0.2173,0.2191,0.2177,0.2168,0.2167,0.2149,0.2148,0.2147,0.2131,0.2132,0.2132,0.2132,0.211,0.2109,0.2107,0.2093,0,0,0.2104,0.2103,0,0,0,0,0,0,0,0,0.2174,0.2172,0.2169,0.2169,0.2168,0.2147,0.2145,0.213,0.2131,0.2141,0.2132,0.2132,0.2124,0.2122,0.2111,0.2092,0.2091,0.2104,0.2103,0.2102,0.2102,0,0,0,0,0,0,0,0.2175,0.2173,0.2163,0.2169,0.2168,0.2156,0.2154,0.2142,0.2129,0.2141,0.214,0.2142,0.2123,0.2112,0.211,0.2091,0.2104,0.2103,0.2102,0.2101,0.2167,0.2169,0,0,0,0,0,0,0.2186,0.2174,0.2164,0.2162,0.2175,0.2156,0.2153,0.215,0.2129,0.2127,0.2142,0.2141,0.2114,0.2112,0.211,0.2175,0.2102,0.2101,0.21,0.2164,0.2167,0.217,0,0,0,0,0,0,0.2186,0.2185,0.2165,0.217,0.2167,0.2156,0.2153,0.215,0.2161,0.213,0.2128,0.2159,0.2114,0.2111,0.2129,0.217,0.2101,0.2099,0.2162,0.2165,0.2169,0.2251,0,0,0,0,0,0,0.2187,0.2185,0.2196,0.2171,0.2168,0.2169,0.2152,0.2149,0.2162,0.2162,0.2144,0.2141,0.2114,0.2132,0.2128,0.2167,0.2099,0.2158,0.2163,0.2168,0.2245,0.2257,0.2267,0,0,0,0,0,0.2187,0.2191,0.2197,0.2196,0.218,0.217,0.2167,0.2158,0.2163,0.217,0.217,0.2143,0.2159,0.2132,0.2128,0.2168,0.2156,0.2162,0.2167,0.224,0.2255,0.2267,0,0,0,0,0,0,0.2201,0.219,0.2195,0.2196,0.2196,0.2169,0.2178,0.2175,0.2179,0.219,0.2161,0.2158,0.2196,0.2173,0.2144,0.2205,0.2159,0.2163,0.2216,0.2229,0.224,0.2262,0.2097,0,0,0,0,0,0.2212,0.2214,0.2205,0.2211,0.2216,0.2206,0.2206,0.2203,0.2199,0.2201,0.219,0.2195,0.2211,0.2213,0.2216,0.2236,0.2261,0.2266,0.2277,0.2286,0.2305,0.2387,0.2407,0.2188,0.2188,0.2188,0,0,0.2218,0.2216,0.2216,0.2215,0.2216,0.2226,0.2207,0.2218,0.2234,0.2199,0.2225,0.2232,0.2228,0.226,0.2275,0.2246,0.2364,0.2293,0.2301,0.2315,0.2395,0.2416,0.2435,0.2192,0.2192,0.2191,0,0,0.2227,0.2235,0.2242,0.2249,0.2261,0.2255,0.2268,0.2262,0.2273,0.2293,0.2292,0.2333,0.2324,0.2347,0.2354,0.2431,0.2425,0.2429,0.2494,0.2573,0.2592,0.2608,0.2677,0.2699,0.2428,0.2428,0.2428,0,0.2243,0.2244,0.2244,0.2259,0.2268,0.2276,0.229,0.2304,0.2306,0.2327,0.2316,0.2374,0.2374,0.2439,0.2472,0.2458,0.2494,0.2437,0.2588,0.2605,0.262,0.2686,0.271,0.2433,0.2432,0.2432,0.2431,0,0.2252,0.2266,0.2275,0.2297,0.2308,0.2323,0.2342,0.2369,0.2387,0.2398,0.2468,0.2483,0.2519,0.2535,0.2525,0.2639,0.2628,0.2596,0.2552,0.2648,0.2711,0.2734,0.244,0.2438,0.2436,0.2435,0,0,0.2254,0.2275,0.2283,0.2297,0.233,0.2334,0.2387,0.2423,0.2465,0.25,0.2557,0.262,0.2642,0.2656,0.2665,0.2738,0.2888,0.272,0.2722,0.2785,0.3067,0.2884,0.2891,0.2881,0.2885,0.2888,0.307,0,0.2266,0.2287,0.2299,0.2331,0.2343,0.2377,0.2418,0.2463,0.2503,0.2562,0.2627,0.2683,0.2683,0.2715,0.2796,0.2857,0.2951,0.2842,0.2968,0.2973,0.2795,0.2912,0.2675,0.2801,0.3092,0.3096,0.3098,0,0.2271,0.2283,0.2307,0.2342,0.2353,0.2383,0.2452,0.2488,0.2584,0.2624,0.271,0.2746,0.2873,0.2852,0.3041,0.2969,0.3044,0.3092,0.3099,0.2915,0.2831,0.2752,0.2831,0.3136,0.3133,0.313,0.3128,0,0.2253,0.2289,0.2305,0.2319,0.2364,0.2398,0.2431,0.2513,0.2553,0.2675,0.2722,0.2856,0.2921,0.3051,0.3145,0.3114,0.3338,0.3296,0.3214,0.3202,0.3017,0.2979,0.3463,0.3463,0.3462,0.3462,0.3461,0,0.2247,0.2265,0.2303,0.2313,0.2348,0.2389,0.2446,0.2505,0.2597,0.2654,0.2756,0.2828,0.2977,0.3096,0.3194,0.3264,0.3385,0.3258,0.3245,0.3035,0.2999,0.329,0.3267,0.3469,0.3467,0.3466,0.3465,0,0.222,0.2247,0.2266,0.2317,0.2338,0.2364,0.2436,0.2471,0.2574,0.2657,0.2701,0.2841,0.2985,0.3114,0.3312,0.329,0.3398,0.3399,0.3128,0.3077,0.3206,0.3186,0.3337,0.3332,0.3328,0.3325,0.3322,0,0.2203,0.221,0.2256,0.2266,0.2293,0.2338,0.2364,0.2456,0.2492,0.2656,0.2686,0.2845,0.2924,0.3112,0.3131,0.3247,0.3361,0.3056,0.2937,0.3226,0.3199,0.3185,0.3171,0.2757,0.275,0.2744,0.2739,0,0.2164,0.2188,0.2196,0.2219,0.2245,0.2267,0.2315,0.234,0.245,0.2537,0.2652,0.2734,0.285,0.2808,0.2881,0.2922,0.3003,0.293,0.3362,0.2777,0.2679,0.2652,0.2658,0.2686,0.2692,0.2695,0.2698,0.27,0.213,0.2122,0.2136,0.2157,0.2183,0.219,0.2188,0.2246,0.2307,0.2364,0.2487,0.2512,0.2534,0.2491,0.249,0.2498,0.2691,0.2605,0.2625,0.2651,0.2502,0.2397,0.2327,0.233,0.2332,0.2335,0.2337,0,0.2053,0.2065,0.2072,0.208,0.208,0.2137,0.2144,0.2095,0.2139,0.2181,0.2228,0.2028,0.2,0.209,0.2001,0.1998,0.2012,0.1952,0.1961,0.2014,0.2061,0.1883,0.1543,0.1541,0.1539,0.1536,0,0,0.2008,0.1978,0.1984,0.1974,0.2009,0.1976,0.1976,0.1909,0.1885,0.1799,0.178,0.1819,0.1956,0.1666,0.1665,0.1596,0.1791,0.1547,0.2184,0.2243,0.2286,0.2439,0.2223,0,0,0,0,0]},{"header":{"parameterUnit":"m.s-1","parameterCategory":2,"la1":30.2991,"la2":30.254,"lo1":-89.0895,"lo2":-89.0444,"dy":0.0017,"dx":0.0017,"nx":28,"ny":28,"refTime":"2024-07-28T09:00:00:Z","depth":"2","parameterNumber":3,"parameterNumberName":"V-component_of_CURRENTS"},"data":[0,0,0,0,0,0,0,0,0,0,0,0,0,0,0,0,0,0,0,0,0,0,0,0,0,0,0,0,0,0,0,0,0,0,0,0,0,0,0,0,0,0,0,0,0,0,0,0,0,0,0,0,0,0,0,0,0,0,0.0356,0.0355,0,0.0271,0.027,0.0269,0.0197,0.0196,0.0195,0.0195,0.0077,0.0074,0.0072,0,0,0,0,0,0,0,0,0,0,0,0,0,0.04,0.04,0.0356,0.0355,0.0354,0.0272,0.027,0.0269,0.0197,0.0196,0.0195,0.0194,0.0078,0.0075,0.0072,0,0,0,0,0,0,0,0,0,0,0,0,0,0.0353,0.04,0.0356,0.031,0.0305,0.0272,0.027,0.0268,0.0197,0.0196,0.0195,0.0194,0.0079,0.0075,0.0071,0.0066,0,0,0.0059,0.0058,0,0,0,0,0,0,0,0,0.0356,0.0351,0.0317,0.0313,0.0307,0.0245,0.0243,0.02,0.0197,0.0236,0.0195,0.0194,0.0132,0.0124,0.0108,0.0061,0.0055,0.0059,0.0057,0.0055,0.0054,0,0,0,0,0,0,0,0.0359,0.0354,0.032,0.0317,0.0311,0.0275,0.0267,0.0234,0.0188,0.0232,0.0227,0.0222,0.0129,0.0111,0.0104,0.0054,0.0059,0.0056,0.0053,0.0052,-0.0022,-0.0022,0,0,0,0,0,0,0.0378,0.0358,0.0323,0.0318,0.0332,0.0275,0.0266,0.0265,0.0189,0.0177,0.0222,0.0219,0.0118,0.0109,0.01,0.0087,0.0055,0.0052,0.0049,-0.0023,-0.0022,-0.0022,0,0,0,0,0,0,0.0379,0.0376,0.0326,0.0337,0.0329,0.0276,0.0274,0.0263,0.0235,0.0182,0.0169,0.0204,0.0117,0.0105,0.0072,0.0082,0.005,0.0046,-0.0023,-0.0023,-0.0022,0.0062,0,0,0,0,0,0,0.0381,0.0377,0.0377,0.0339,0.0329,0.0312,0.0275,0.0263,0.0234,0.0228,0.0162,0.0151,0.0116,0.0078,0.0068,0.0076,0.0043,-0.0023,-0.0023,-0.0022,0.0059,0.0065,0.0071,0,0,0,0,0,0.0383,0.039,0.0378,0.0373,0.0333,0.0312,0.0304,0.0261,0.0235,0.023,0.0186,0.0152,0.0075,0.0075,0.0064,0.007,-0.0024,-0.0023,-0.0022,0.0056,0.0064,0.0071,0,0,0,0,0,0,0.04,0.0382,0.0368,0.0366,0.0344,0.0301,0.0289,0.0261,0.0222,0.0208,0.0157,0.0143,0.012,0.0082,0.0084,0.005,0.002,0.0018,0.0083,0.009,0.0096,0.0127,0.004,0,0,0,0,0,0.0409,0.0413,0.0386,0.0383,0.0374,0.0331,0.0314,0.0286,0.025,0.023,0.0184,0.0139,0.0116,0.0092,0.0061,0.004,0.0025,0.0035,0.0041,0.0047,0.0064,0.0058,0.0066,-0.0019,-0.0019,-0.002,0,0,0.0412,0.0405,0.0403,0.0388,0.0363,0.0363,0.0317,0.0294,0.0293,0.0224,0.0199,0.0159,0.0116,0.0098,0.0083,0.0065,0.0062,0.0048,0.0053,0.0067,0.0059,0.0068,0.0076,-0.0019,-0.0019,-0.0019,0,0,0.0429,0.0417,0.0427,0.0417,0.0393,0.0375,0.0371,0.0326,0.0305,0.0279,0.0238,0.0213,0.0151,0.0139,0.0123,0.0143,0.0099,0.0115,0.0167,0.016,0.0168,0.0174,0.0168,0.0173,0.0114,0.0114,0.0114,0,0.0427,0.0446,0.0424,0.0434,0.0435,0.0387,0.04,0.0377,0.0325,0.0324,0.028,0.0228,0.0182,0.0194,0.0191,0.0161,0.0141,0.0145,0.0171,0.0177,0.0182,0.0174,0.0178,0.0118,0.0118,0.0117,0.0117,0,0.0458,0.0469,0.0474,0.0481,0.048,0.0479,0.0459,0.0446,0.0411,0.0389,0.0378,0.032,0.0291,0.027,0.023,0.0247,0.0216,0.0186,0.016,0.0196,0.0184,0.0188,0.0124,0.0123,0.0121,0.012,0,0,0.0455,0.049,0.0489,0.0513,0.0507,0.0512,0.0523,0.053,0.0548,0.0489,0.0513,0.0459,0.0417,0.0397,0.0347,0.0333,0.0342,0.0269,0.0266,0.0275,0.0322,0.0259,0.0256,0.0307,0.0308,0.0309,0.03,0,0.048,0.0528,0.0537,0.0579,0.0603,0.059,0.0615,0.0615,0.0598,0.0605,0.0562,0.0546,0.047,0.0446,0.0428,0.0366,0.0354,0.0347,0.0274,0.0273,0.0223,0.026,0.0209,0.0193,0.0303,0.0304,0.0304,0,0.0504,0.0541,0.0591,0.0652,0.0661,0.0674,0.072,0.0732,0.0741,0.0727,0.0711,0.0664,0.0641,0.0561,0.0498,0.049,0.0414,0.0364,0.0361,0.0279,0.0216,0.0172,0.0195,0.0309,0.0309,0.0308,0.0308,0,0.0527,0.058,0.0631,0.0645,0.0698,0.0718,0.0736,0.0758,0.0786,0.079,0.0801,0.0771,0.0737,0.0664,0.0545,0.0512,0.0481,0.0423,0.0308,0.0302,0.0235,0.0222,0.0388,0.0388,0.0388,0.0388,0.0389,0,0.0559,0.0596,0.064,0.0665,0.0729,0.0745,0.0802,0.0818,0.0852,0.0904,0.0848,0.0883,0.0753,0.0712,0.0603,0.0476,0.0524,0.0333,0.0301,0.026,0.025,0.0327,0.032,0.0388,0.0388,0.0388,0.0388,0,0.0571,0.0602,0.0663,0.0721,0.0738,0.0774,0.0833,0.0882,0.0895,0.0962,0.096,0.0954,0.0899,0.0786,0.0675,0.0536,0.0434,0.0376,0.0336,0.0298,0.0243,0.024,0.0241,0.0239,0.0237,0.0235,0.0234,0,0.0581,0.0613,0.0689,0.0726,0.0745,0.0797,0.0846,0.0889,0.0953,0.1021,0.1073,0.1033,0.1052,0.0874,0.0615,0.0424,0.0441,0.0237,0.0158,0.0262,0.0231,0.0231,0.0231,0.0106,0.0103,0.0102,0.01,0,0.0599,0.062,0.0676,0.0747,0.0799,0.0872,0.0941,0.1014,0.1085,0.1149,0.125,0.1269,0.1068,0.0844,0.0542,0.0403,0.026,0.019,0.0333,0.0142,0.0131,0.0101,0.0106,0.0084,0.0085,0.0087,0.0087,0.0088,0.06,0.064,0.0704,0.0776,0.0834,0.0928,0.1018,0.1115,0.1233,0.133,0.1359,0.1341,0.1083,0.065,0.0415,0.0117,0.0139,0.0021,0.0028,0.0037,0.0015,0.0,-0.0076,-0.0075,-0.0075,-0.0074,-0.0074,0,0.0607,0.0653,0.0725,0.0816,0.0878,0.0903,0.1075,0.1172,0.133,0.1362,0.1418,0.1136,0.0895,0.0632,0.0135,-0.0119,-0.0128,-0.0163,-0.013,-0.0114,-0.01,-0.0127,-0.0256,-0.0257,-0.0258,-0.0258,0,0,0.0609,0.0682,0.0731,0.0828,0.0875,0.0985,0.1094,0.1231,0.1307,0.135,0.1288,0.1226,0.0916,0.0531,0.0209,-0.0035,-0.0014,-0.0078,0.0082,0.0171,0.0188,0.0007,-0.0019,0,0,0,0,0]}],[{"header":{"parameterUnit":"m.s-1","parameterCategory":2,"la1":30.2991,"la2":30.254,"lo1":-89.0895,"lo2":-89.0444,"dy":0.0017,"dx":0.0017,"nx":28,"ny":28,"refTime":"2024-07-28T09:00:00:Z","depth":"4","parameterNumber":2,"parameterNumberName":"U-component_of_CURRENTS"},"data":[0,0,0,0,0,0,0,0,0,0,0,0,0,0,0,0,0,0,0,0,0,0,0,0,0,0,0,0,0,0,0,0,0,0,0,0,0,0,0,0,0,0,0,0,0,0,0,0,0,0,0,0,0,0,0,0,0,0,0.0481,0.0481,0,0.0525,0.0526,0.0526,0.0561,0.0561,0.0561,0.0561,0.0624,0.0626,0.0627,0,0,0,0,0,0,0,0,0,0,0,0,0,0.0458,0.0458,0.0481,0.0481,0.0481,0.0525,0.0526,0.0527,0.0561,0.0561,0.0561,0.0561,0.0624,0.0625,0.0627,0,0,0,0,0,0,0,0,0,0,0,0,0,0.0483,0.0458,0.0481,0.0502,0.0504,0.0525,0.0526,0.0527,0.0561,0.0561,0.0561,0.0561,0.0623,0.0625,0.0628,0.0639,0,0,0.0635,0.0636,0,0,0,0,0,0,0,0,0.0482,0.0484,0.0499,0.0501,0.0503,0.0536,0.0541,0.0564,0.056,0.0541,0.0561,0.0561,0.0595,0.0599,0.061,0.0642,0.0644,0.0635,0.0636,0.0637,0.0638,0,0,0,0,0,0,0,0.048,0.0483,0.0501,0.0499,0.0502,0.052,0.0524,0.0546,0.0569,0.0543,0.0545,0.0547,0.0596,0.0608,0.0612,0.0645,0.0635,0.0637,0.0639,0.0639,0.0754,0.0755,0,0,0,0,0,0,0.0468,0.0481,0.0499,0.0502,0.049,0.052,0.0525,0.0527,0.0568,0.0574,0.0546,0.0548,0.0604,0.0609,0.0614,0.0684,0.0637,0.064,0.0641,0.0752,0.0754,0.0756,0,0,0,0,0,0,0.0468,0.0469,0.0497,0.0491,0.0495,0.052,0.0522,0.0527,0.0563,0.057,0.0576,0.0579,0.0604,0.0611,0.0631,0.0685,0.0641,0.0643,0.075,0.0753,0.0755,0.0789,0,0,0,0,0,0,0.0467,0.0469,0.0482,0.049,0.0495,0.0508,0.0522,0.0528,0.0561,0.0564,0.06,0.0604,0.0605,0.0628,0.0634,0.0687,0.0645,0.0748,0.0751,0.0754,0.0786,0.0792,0.0798,0,0,0,0,0,0.0466,0.0473,0.0483,0.0485,0.0507,0.0508,0.0513,0.0532,0.0563,0.0569,0.0589,0.0604,0.0653,0.0629,0.0636,0.0692,0.0746,0.075,0.0754,0.0783,0.0791,0.0798,0,0,0,0,0,0,0.0469,0.0477,0.0488,0.0498,0.0503,0.0513,0.0532,0.055,0.0575,0.0598,0.0606,0.061,0.0652,0.0664,0.0639,0.0736,0.0711,0.0716,0.0731,0.0739,0.0745,0.0783,0.0647,0,0,0,0,0,0.0475,0.0488,0.0489,0.0501,0.0509,0.053,0.0543,0.056,0.0576,0.0591,0.0621,0.0656,0.067,0.0695,0.0711,0.0759,0.0756,0.0806,0.0812,0.0817,0.0854,0.0848,0.0856,0.0768,0.0768,0.0767,0,0,0.0483,0.0488,0.0497,0.0504,0.0521,0.0531,0.054,0.057,0.0601,0.0594,0.0663,0.0672,0.0683,0.0727,0.0752,0.0748,0.0841,0.0822,0.0826,0.0861,0.0852,0.0861,0.0868,0.077,0.077,0.0769,0,0,0.0494,0.0508,0.0523,0.0531,0.0555,0.0557,0.057,0.0605,0.0645,0.0689,0.0696,0.0732,0.0776,0.0794,0.0804,0.0858,0.086,0.088,0.0957,0.095,0.0957,0.0963,0.0963,0.0969,0.0897,0.0897,0.0897,0,0.0504,0.0522,0.0527,0.0543,0.056,0.057,0.0595,0.0625,0.067,0.0715,0.0718,0.0803,0.081,0.086,0.0886,0.0875,0.0872,0.0921,0.0956,0.0962,0.0968,0.0967,0.0973,0.0899,0.0899,0.0899,0.0899,0,0.0523,0.0547,0.0558,0.0579,0.0593,0.0616,0.0646,0.0693,0.0745,0.0781,0.0865,0.0877,0.0933,0.0944,0.0936,0.1001,0.0984,0.0947,0.0933,0.0979,0.0975,0.0981,0.0902,0.0901,0.0901,0.09,0,0,0.0512,0.0563,0.0569,0.0597,0.0625,0.0635,0.0696,0.0747,0.0809,0.0872,0.0958,0.1002,0.1039,0.1056,0.1062,0.1078,0.1108,0.1053,0.1052,0.1047,0.1104,0.1038,0.1037,0.1069,0.1071,0.1072,0.1081,0,0.0527,0.0567,0.0593,0.0636,0.0658,0.0698,0.0739,0.0798,0.0867,0.0949,0.1004,0.1078,0.1071,0.1119,0.1131,0.1112,0.1128,0.1111,0.1069,0.1069,0.0997,0.1044,0.1077,0.1085,0.1086,0.1087,0.1088,0,0.053,0.056,0.0612,0.0675,0.0692,0.0721,0.0811,0.0867,0.0967,0.1039,0.1131,0.1166,0.1239,0.1212,0.1224,0.1213,0.1185,0.1161,0.1158,0.1098,0.1014,0.1033,0.1098,0.1097,0.1097,0.1096,0.1095,0,0.0504,0.0571,0.0617,0.0639,0.0703,0.0759,0.081,0.0904,0.0974,0.1128,0.1187,0.1262,0.1311,0.1297,0.1259,0.1254,0.1237,0.1204,0.1119,0.1113,0.1152,0.1145,0.1213,0.1213,0.1213,0.1213,0.1212,0,0.0491,0.0529,0.0618,0.064,0.0705,0.0771,0.0868,0.0944,0.1061,0.1133,0.1247,0.1285,0.1336,0.1322,0.1284,0.1217,0.1249,0.116,0.1119,0.1165,0.116,0.1155,0.1148,0.1213,0.1213,0.1213,0.1213,0,0.0445,0.0503,0.056,0.0657,0.0693,0.0753,0.0887,0.095,0.108,0.1183,0.1239,0.1319,0.1323,0.1324,0.1294,0.1239,0.1185,0.1144,0.1209,0.1167,0.1069,0.1064,0.1089,0.1087,0.1085,0.1083,0.1082,0,0.0424,0.0442,0.056,0.0605,0.0659,0.0763,0.0816,0.0954,0.1023,0.1162,0.1182,0.1251,0.1286,0.1196,0.1197,0.1154,0.1122,0.111,0.1107,0.1103,0.1061,0.1058,0.1056,0.1079,0.1079,0.1078,0.1078,0,0.0363,0.0412,0.0458,0.0558,0.0633,0.0705,0.0805,0.0844,0.0992,0.1105,0.1135,0.1159,0.1156,0.1141,0.1125,0.1071,0.1137,0.1091,0.1095,0.1093,0.1091,0.1051,0.105,0.1072,0.1073,0.1073,0.1074,0,0.0313,0.0327,0.0399,0.0491,0.0568,0.0619,0.0694,0.0767,0.0843,0.1012,0.0991,0.1056,0.1125,0.1091,0.1042,0.1032,0.1028,0.1005,0.1013,0.102,0.0992,0.098,0.0914,0,0,0,0,0,0.0267,0.0274,0.0329,0.0409,0.049,0.0541,0.0654,0.0731,0.0862,0.087,0.095,0.095,0.0962,0.0962,0.0938,0.0988,0.1007,0.0954,0.0979,0.1038,0.1045,0.1018,0,0,0,0,0,0,0.0223,0.0259,0.0289,0.0325,0.0367,0.0432,0.05,0.0598,0.0619,0.0763,0.076,0.0885,0.0881,0.0951,0.0907,0.0916,0.0915,0.1001,0.0999,0.1034,0.1041,0.1046,0.102,0,0,0,0,0]},{"header":{"parameterUnit":"m.s-1","parameterCategory":2,"la1":30.2991,"la2":30.254,"lo1":-89.0895,"lo2":-89.0444,"dy":0.0017,"dx":0.0017,"nx":28,"ny":28,"refTime":"2024-07-28T09:00:00:Z","depth":"4","parameterNumber":3,"parameterNumberName":"V-component_of_CURRENTS"},"data":[0,0,0,0,0,0,0,0,0,0,0,0,0,0,0,0,0,0,0,0,0,0,0,0,0,0,0,0,0,0,0,0,0,0,0,0,0,0,0,0,0,0,0,0,0,0,0,0,0,0,0,0,0,0,0,0,0,0,0.0343,0.0343,0,0.0329,0.0329,0.0328,0.033,0.033,0.033,0.0331,0.0301,0.03,0.0298,0,0,0,0,0,0,0,0,0,0,0,0,0,0.035,0.035,0.0343,0.0343,0.0343,0.0329,0.0329,0.0328,0.033,0.033,0.033,0.0331,0.0301,0.03,0.0298,0,0,0,0,0,0,0,0,0,0,0,0,0,0.0341,0.035,0.0343,0.0343,0.0343,0.0329,0.0329,0.0328,0.0329,0.033,0.033,0.0331,0.0301,0.03,0.0298,0.0277,0,0,0.0293,0.0292,0,0,0,0,0,0,0,0,0.0342,0.0341,0.0343,0.0343,0.0343,0.0333,0.032,0.0311,0.0329,0.0333,0.0331,0.0331,0.0311,0.0308,0.0302,0.0276,0.0275,0.0293,0.0292,0.0291,0.0291,0,0,0,0,0,0,0,0.0342,0.0341,0.0336,0.0343,0.0343,0.0337,0.0336,0.0318,0.0317,0.0333,0.0333,0.0334,0.031,0.0304,0.0302,0.0274,0.0293,0.0291,0.029,0.029,0.0226,0.0225,0,0,0,0,0,0,0.0348,0.0342,0.0336,0.0335,0.0345,0.0336,0.0335,0.0334,0.0318,0.0317,0.0333,0.0334,0.0307,0.0304,0.0301,0.0277,0.0291,0.029,0.0289,0.0227,0.0226,0.0225,0,0,0,0,0,0,0.0348,0.0347,0.0337,0.034,0.0338,0.0336,0.0334,0.0334,0.0339,0.0319,0.0317,0.034,0.0307,0.0303,0.0284,0.0276,0.0289,0.0287,0.0228,0.0227,0.0226,0.0229,0,0,0,0,0,0,0.0348,0.0347,0.0352,0.034,0.0338,0.0333,0.0334,0.0333,0.0338,0.0339,0.0324,0.0321,0.0307,0.0286,0.0282,0.0274,0.0286,0.0228,0.0227,0.0226,0.023,0.0229,0.0227,0,0,0,0,0,0.0348,0.0352,0.0352,0.0351,0.0343,0.0333,0.0331,0.033,0.0338,0.0338,0.0323,0.0322,0.0275,0.0284,0.028,0.0271,0.0229,0.0228,0.0226,0.0231,0.0229,0.0227,0,0,0,0,0,0,0.0359,0.0352,0.0352,0.0354,0.0347,0.0334,0.0339,0.0337,0.0326,0.0333,0.0313,0.0309,0.0288,0.0278,0.0288,0.0248,0.0252,0.025,0.0257,0.0255,0.0254,0.0263,0.0285,0,0,0,0,0,0.0363,0.0365,0.0354,0.0358,0.0357,0.035,0.0349,0.0348,0.0337,0.0334,0.0321,0.0303,0.0276,0.0266,0.0245,0.0225,0.0195,0.0215,0.0214,0.0213,0.0215,0.0144,0.0136,0.022,0.022,0.022,0,0,0.0371,0.0367,0.0369,0.0361,0.0359,0.0351,0.0351,0.0355,0.0351,0.0331,0.0324,0.03,0.0269,0.0243,0.0233,0.0235,0.0174,0.0211,0.021,0.0214,0.0141,0.0133,0.0126,0.0219,0.0219,0.022,0,0,0.0385,0.0383,0.0389,0.0382,0.0381,0.0366,0.037,0.0361,0.0362,0.0347,0.0326,0.0294,0.027,0.0233,0.0213,0.0191,0.0169,0.0192,0.0192,0.0122,0.0114,0.0107,0.0065,0.0055,0.0191,0.0191,0.0191,0,0.0394,0.0399,0.0389,0.0391,0.039,0.0373,0.0377,0.0366,0.0351,0.0343,0.035,0.0284,0.026,0.0205,0.0199,0.0187,0.0157,0.0202,0.012,0.0112,0.0105,0.0063,0.0051,0.0191,0.0191,0.0191,0.0191,0,0.0408,0.0414,0.0419,0.041,0.0402,0.0405,0.0386,0.0378,0.0374,0.0355,0.0319,0.0278,0.0238,0.022,0.0205,0.0141,0.014,0.0126,0.0125,0.0097,0.0055,0.0042,0.0191,0.0191,0.0191,0.0191,0,0,0.042,0.0428,0.0431,0.0437,0.0418,0.0413,0.0398,0.0374,0.0363,0.0337,0.0313,0.0256,0.0237,0.0213,0.0181,0.0121,0.0044,0.011,0.0106,0.0071,-0.0093,-0.0052,-0.0062,0.0015,0.0012,0.001,-0.0098,0,0.0435,0.0453,0.0446,0.0452,0.0457,0.0434,0.0413,0.0387,0.0369,0.0336,0.0283,0.0257,0.0233,0.0223,0.0151,0.007,0.001,0.0076,-0.0062,-0.0065,-0.0025,-0.0076,0.0003,-0.0108,-0.0111,-0.0113,-0.0115,0,0.0447,0.0458,0.0481,0.0476,0.0475,0.0472,0.0443,0.0432,0.0373,0.0364,0.0317,0.0277,0.0194,0.0185,0.0022,0.0067,-0.0007,-0.0072,-0.0078,-0.0049,-0.0049,-0.0076,-0.0138,-0.0136,-0.0134,-0.0133,-0.0131,0,0.0461,0.0477,0.0502,0.0503,0.0489,0.0497,0.049,0.0446,0.0443,0.0401,0.0385,0.0278,0.0236,0.0114,-0.0008,0.0003,-0.0189,-0.0194,-0.0231,-0.0228,-0.0231,-0.0223,-0.0313,-0.0313,-0.0313,-0.0313,-0.0312,0,0.0469,0.0485,0.0521,0.0531,0.0549,0.0537,0.055,0.0526,0.0497,0.0485,0.0418,0.0366,0.0216,0.0091,-0.0021,-0.0162,-0.0203,-0.0239,-0.0262,-0.0225,-0.0215,-0.024,-0.023,-0.0317,-0.0316,-0.0315,-0.0314,0,0.0471,0.0495,0.0526,0.0548,0.0561,0.0584,0.0612,0.061,0.0589,0.0573,0.0567,0.0421,0.0272,0.012,-0.0086,-0.0163,-0.0306,-0.0343,-0.028,-0.0296,-0.0293,-0.0282,-0.0399,-0.0399,-0.0398,-0.0398,-0.0398,0,0.0468,0.0488,0.0552,0.0586,0.0609,0.0652,0.0668,0.0665,0.0669,0.0596,0.0571,0.0434,0.0334,0.0071,-0.0098,-0.0297,-0.0317,-0.0381,-0.0348,-0.0296,-0.0307,-0.0296,-0.0285,-0.0398,-0.0398,-0.0397,-0.0397,0,0.0454,0.0491,0.0515,0.0602,0.0651,0.0692,0.0726,0.0736,0.0721,0.0703,0.0595,0.0462,0.0286,0.0078,-0.0063,-0.0217,-0.0337,-0.0378,-0.038,-0.035,-0.0296,-0.0304,-0.0294,-0.0396,-0.0397,-0.0397,-0.0397,0,0.0443,0.0455,0.0512,0.0592,0.0659,0.0705,0.0732,0.0731,0.0728,0.0675,0.0624,0.0448,0.0338,0.0115,-0.004,-0.0158,-0.0185,-0.0214,-0.0224,-0.0227,-0.0138,-0.0041,-0.0094,0,0,0,0,0,0.0428,0.0441,0.0497,0.0574,0.0659,0.0707,0.0739,0.0757,0.0759,0.071,0.0683,0.0534,0.0309,0.0161,0.0055,-0.0049,-0.0221,-0.0181,-0.0261,-0.0391,-0.0392,-0.0312,0,0,0,0,0,0,0.0404,0.0443,0.0473,0.0565,0.0634,0.0703,0.0736,0.0742,0.0709,0.0698,0.0567,0.0528,0.0287,0.0393,0.0062,0.0016,-0.0046,-0.0289,-0.0291,-0.0391,-0.0392,-0.0393,-0.031,0,0,0,0,0]}]]